Simultaneous Nadir Overpasses (SNOs) Predictions

Prediction of SNOs between AURA and NPP Satellite Orbit:

Table of predicted SNOs for the next 14.0 days since TLE Epoch: 5/25/2024
Index Date (AURA) Time (AURA) Lat,Lon (AURA) SZA (AURA ) Date (NPP) Time (NPP) Lat,Lon (NPP) SZA (NPP ) Distance(km) Time Diff (sec)
1 05/26/2024 22:50:08 -80.56, -74.45 110.83 05/26/2024 22:49:28 -80.56, -74.58 110.79 2.42 40
2 05/26/2024 23:39:28 80.65, 94.26 68.99 05/26/2024 23:40:08 80.65, 94.20 68.97 0.99 40
3 05/29/2024 12:34:27 80.59,-100.14 68.72 05/29/2024 12:34:02 80.59,-100.17 68.74 0.66 25
4 05/29/2024 13:23:48 -80.68, 68.46 111.45 05/29/2024 13:24:44 -80.67, 68.31 111.46 2.72 56
5 06/01/2024 02:18:45 -80.63,-125.77 111.70 06/01/2024 02:18:37 -80.63,-125.78 111.70 0.21 8
6 06/01/2024 03:08:05 80.72, 42.86 68.13 06/01/2024 03:09:17 80.72, 43.00 68.06 2.47 72
7 06/03/2024 15:13:41 -80.57, 39.81 111.88 06/03/2024 15:12:31 -80.56, 39.73 111.82 1.60 70
8 06/03/2024 16:03:01 80.65,-151.61 67.96 06/03/2024 16:03:11 80.66,-151.53 67.94 1.62 10
9 06/06/2024 04:57:56 80.56, 13.73 67.87 06/06/2024 04:57:06 80.56, 13.55 67.93 3.23 50



Historial Predications of SNOs between AURA and NPP
